Weather History for Marathon, FL

Change the Weather History Date:

Tuesday, March 19, 2013

  Actual Average Record
Temperature  
Mean Temperature 72 °F 74 °F  
Max Temperature 76 °F 80 °F 87 °F (2003)
Min Temperature 68 °F 69 °F 63 °F (2005)
Degree Days  
Heating Degree Days 0 0  
Month to date heating degree days 19 0  
Since 1 July heating degree days 32 75  
Cooling Degree Days 7 9  
Month to date cooling degree days 89 161  
Year to date cooling degree days 684 543  
Growing Degree Days 22 (Base 50)    
Moisture  
Dew Point 65 °F    
Average Humidity 75    
Maximum Humidity 90    
Minimum Humidity 60    
Precipitation  
Precipitation 0.85 in 0.08 in 0.85 in (2013)
Month to date precipitation 1.00 1.44  
Year to date precipitation 3.38 5.26  
Snow  
Snow 0.00 in - - ()
Month to date snowfall 0.0  
Since 1 July snowfall 0.0  
Snow Depth 0.00 in    
Sea Level Pressure  
Sea Level Pressure 29.97 in    
Wind  
Wind Speed 5 mph (NW)    
Max Wind Speed 16 mph    
Max Gust Speed 24 mph    
Visibility 8 miles    
Events Rain , Thunderstorm    
T = Trace of Precipitation, MM = Missing Value Source: NWS Daily Summary

Daily Weather History Graph

Daily Weather History Graph

Search for Another Location

Airport:

Trip Planner

Search our weather history database for the weather conditions in past years. The results will help you decide how hot, cold, wet, or windy it might be!

Date:

Astronomy

Mar. 19, 2013 Rise Set
Actual Time 7:28 AM EDT 7:35 PM EDT
Civil Twilight 7:06 AM EDT 7:57 PM EDT
Nautical Twilight 6:39 AM EDT 8:24 PM EDT
Astronomical Twilight 6:13 AM EDT 8:50 PM EDT
Moon 12:51 PM EDT (3/19) 1:47 AM EDT (3/19)
Length of Visible Light 12h 51m
Length of Day
12h 06m
Waxing Crescent, 49% of the Moon is Illuminated
Mar 19
Waxing Crescent
Mar 19
First Quarter
Mar 27
Full
Apr 3
Last Quarter
Apr 10
New

Hourly Weather History & Observations

Time (EDT) Temp. Dew Point Humidity Pressure Visibility Wind Dir Wind Speed Gust Speed Precip Events Conditions
12:53 AM 73.9 °F 70.0 °F 87% 29.98 in 8.0 mi SE 3.5 mph - N/A   Clear
1:53 AM 73.9 °F 70.0 °F 87% 29.97 in 8.0 mi Calm Calm - N/A   Mostly Cloudy
2:53 AM 73.9 °F 70.0 °F 87% 29.95 in 9.0 mi Calm Calm - N/A   Overcast
3:53 AM 75.0 °F 70.0 °F 84% 29.93 in 5.0 mi Calm Calm - 0.02 in Rain Rain
4:19 AM 73.4 °F 69.8 °F 88% 29.94 in 2.5 mi North 4.6 mph - 0.10 in Rain Heavy Rain
4:26 AM 73.4 °F 69.8 °F 88% 29.94 in 3.0 mi North 5.8 mph - 0.14 in Rain Rain
4:29 AM 71.6 °F 68.0 °F 88% 29.94 in 2.5 mi North 11.5 mph 19.6 mph 0.17 in Rain Heavy Rain
4:40 AM 69.8 °F 66.2 °F 88% 29.93 in 2.5 mi North 16.1 mph 24.2 mph 0.21 in Rain Rain
4:45 AM 69.8 °F 66.2 °F 88% 29.94 in 3.0 mi North 16.1 mph 24.2 mph 0.23 in Rain , Thunderstorm Rain
4:53 AM 69.1 °F 66.0 °F 90% 29.94 in 3.0 mi North 16.1 mph 24.2 mph 0.26 in Rain , Thunderstorm Rain
5:06 AM 68.0 °F 64.4 °F 88% 29.95 in 4.0 mi North 13.8 mph 24.2 mph 0.03 in Rain Rain
5:22 AM 68.0 °F 64.4 °F 88% 29.97 in 1.8 mi NNW 9.2 mph 18.4 mph 0.20 in Rain Heavy Rain
5:38 AM 69.8 °F 64.4 °F 83% 29.97 in 1.8 mi North 10.4 mph 17.3 mph 0.40 in Rain Heavy Rain
5:44 AM 68.0 °F 64.4 °F 88% 29.97 in 3.0 mi North 8.1 mph 16.1 mph 0.41 in Rain Rain
5:53 AM 69.1 °F 64.9 °F 87% 29.97 in 8.0 mi NNW 5.8 mph - 0.42 in Rain Light Rain
6:53 AM 69.1 °F 64.9 °F 87% 29.98 in 10.0 mi Calm Calm - 0.08 in   Overcast
7:04 AM 69.8 °F 64.4 °F 83% 29.97 in 2.5 mi ESE 3.5 mph - 0.06 in Rain Rain
7:11 AM 68.0 °F 64.4 °F 88% 29.99 in 7.0 mi NNE 5.8 mph - 0.07 in Rain Light Rain
7:53 AM 69.1 °F 64.9 °F 87% 29.99 in 10.0 mi Calm Calm - 0.07 in   Overcast
8:53 AM 70.0 °F 66.0 °F 87% 29.98 in 10.0 mi Calm Calm - N/A   Overcast
9:53 AM 71.1 °F 64.9 °F 81% 29.99 in 10.0 mi South 6.9 mph - N/A   Mostly Cloudy
10:53 AM 72.0 °F 64.0 °F 76% 29.98 in 10.0 mi South 6.9 mph 17.3 mph N/A   Mostly Cloudy
11:53 AM 73.0 °F 64.0 °F 73% 30.02 in 10.0 mi SW 4.6 mph - N/A   Clear
12:53 PM 73.9 °F 64.9 °F 73% 30.02 in 10.0 mi SW 4.6 mph - N/A   Clear
1:53 PM 73.9 °F 64.0 °F 71% 30.02 in 10.0 mi West 5.8 mph - N/A   Clear
2:53 PM 75.0 °F 61.0 °F 62% 29.98 in 10.0 mi SW 5.8 mph - N/A   Clear
3:53 PM 75.0 °F 63.0 °F 66% 29.97 in 10.0 mi West 8.1 mph - N/A   Clear
4:53 PM 73.9 °F 64.0 °F 71% 29.94 in 10.0 mi NW 5.8 mph - N/A   Clear
5:53 PM 75.0 °F 64.0 °F 69% 29.95 in 10.0 mi WNW 9.2 mph - N/A   Clear
6:53 PM 73.0 °F 64.0 °F 73% 29.96 in 10.0 mi West 8.1 mph - N/A   Clear
7:53 PM 71.1 °F 64.9 °F 81% 29.96 in 10.0 mi West 9.2 mph - N/A   Clear
8:53 PM 71.1 °F 64.9 °F 81% 29.97 in 10.0 mi West 8.1 mph - N/A   Scattered Clouds
9:05 PM 71.6 °F 64.4 °F 78% 29.98 in 10.0 mi WNW 8.1 mph - N/A   Mostly Cloudy
9:33 PM 69.8 °F 64.4 °F 83% 29.98 in 10.0 mi West 6.9 mph - N/A   Scattered Clouds
9:53 PM 70.0 °F 64.9 °F 84% 29.99 in 10.0 mi West 5.8 mph - N/A   Scattered Clouds
10:53 PM 70.0 °F 64.9 °F 84% 29.99 in 10.0 mi WNW 4.6 mph - N/A   Scattered Clouds
11:04 PM 69.8 °F 64.4 °F 83% 30.00 in 10.0 mi WNW 3.5 mph - N/A   Mostly Cloudy
11:12 PM 69.8 °F 64.4 °F 83% 30.00 in 10.0 mi NW 5.8 mph - N/A   Scattered Clouds
11:33 PM 69.8 °F 64.4 °F 83% 29.99 in 10.0 mi NW 5.8 mph - N/A   Scattered Clouds
11:53 PM 70.0 °F 64.9 °F 84% 29.99 in 10.0 mi NW 5.8 mph - N/A   Partly Cloudy